Colby, KS

9:20 PM CDT on September 26, 2016 (GMT -0500)
Shaltz

Weather History for KCBK - September, 2013

Change the Weather History Date:

Friday, September 6, 2013

  Actual Average (KGLD) Record (KGLD)
Temperature  
Mean Temperature 82 °F 69 °F  
Max Temperature 100 °F 83 °F 102 °F (1939)
Min Temperature 64 °F 54 °F 37 °F (1956)
Degree Days  
Heating Degree Days 0 1  
Month to date heating degree days 6  
Since 1 July heating degree days 18  
Cooling Degree Days 17 5  
Month to date cooling degree days 35  
Year to date cooling degree days 868  
Growing Degree Days 32 (Base 50)    
Moisture  
Dew Point 50 °F    
Average Humidity 33    
Maximum Humidity 52    
Minimum Humidity 19    
Precipitation  
Precipitation 0.00 in 0.05 in 0.97 in (1942)
Month to date precipitation 0.29  
Year to date precipitation 16.19  
Snow  
Snow 0.00 in 0.00 in - ()
Month to date snowfall 0.0  
Since 1 July snowfall 0.0  
Since 1 September snowfall 0.0  
Snow Depth -    
Sea Level Pressure  
Sea Level Pressure 30.06 in    
Wind  
Wind Speed 11 mph (South)    
Max Wind Speed 21 mph    
Max Gust Speed 29 mph    
Visibility 10 miles    
Events      
T = Trace of Precipitation, MM = Missing Value Source: NWS Daily Summary

Daily Weather History Graph

Daily Weather History Graph

Search for Another Location

Airport or City:

Trip Planner

Search our weather history database for the weather conditions in past years. The results will help you decide how hot, cold, wet, or windy it might be!

Date:

Astronomy

Sep. 06, 2013 Rise Set
Actual Time 7:17 AM CDT 8:06 PM CDT
Civil Twilight 6:50 AM CDT 8:33 PM CDT
Nautical Twilight 6:17 AM CDT 9:06 PM CDT
Astronomical Twilight 5:44 AM CDT 9:39 PM CDT
Moon 8:31 AM CDT (9/6) 8:32 PM CDT (9/6)
Length of Visible Light 13h 43m
Length of Day
12h 49m
New Moon, 2% of the Moon is Illuminated
Sep 6
New Moon
Sep 12
First Quarter
Sep 19
Full
Sep 26
Last Quarter
Oct 4
New

Hourly Weather History & Observations

Time (CDT) Temp. Dew Point Humidity Pressure Visibility Wind Dir Wind Speed Gust Speed Precip Events Conditions
12:15 AM 75.2 °F 51.8 °F 44% 30.12 in 10.0 mi South 13.8 mph - N/A   Clear
12:35 AM 73.4 °F 51.8 °F 47% 30.12 in 10.0 mi SSE 12.7 mph - N/A   Clear
12:55 AM 73.4 °F 51.8 °F 47% 30.12 in 10.0 mi South 12.7 mph 18.4 mph N/A   Clear
1:15 AM 73.4 °F 51.8 °F 47% 30.12 in 10.0 mi South 12.7 mph - N/A   Clear
1:35 AM 73.4 °F 50.0 °F 44% 30.12 in 10.0 mi South 11.5 mph 17.3 mph N/A   Clear
1:55 AM 73.4 °F 50.0 °F 44% 30.12 in 10.0 mi South 11.5 mph - N/A   Clear
2:15 AM 71.6 °F 50.0 °F 46% 30.12 in 10.0 mi South 10.4 mph - N/A   Clear
2:35 AM 71.6 °F 50.0 °F 46% 30.12 in 10.0 mi South 6.9 mph - N/A   Clear
2:55 AM 69.8 °F 50.0 °F 49% 30.11 in 10.0 mi SSW 6.9 mph - N/A   Clear
3:15 AM 68.0 °F 50.0 °F 52% 30.11 in 10.0 mi SSW 6.9 mph - N/A   Clear
3:35 AM 69.8 °F 50.0 °F 49% 30.11 in 10.0 mi SSW 8.1 mph - N/A   Clear
3:55 AM 69.8 °F 48.2 °F 46% 30.10 in 10.0 mi SSW 8.1 mph - N/A   Clear
4:15 AM 69.8 °F 48.2 °F 46% 30.10 in 10.0 mi SSW 6.9 mph - N/A   Clear
4:35 AM 68.0 °F 46.4 °F 46% 30.10 in 10.0 mi SSW 5.8 mph - N/A   Clear
4:55 AM 68.0 °F 46.4 °F 46% 30.10 in 10.0 mi SSW 6.9 mph - N/A   Clear
5:15 AM 66.2 °F 46.4 °F 49% 30.10 in 10.0 mi SSW 6.9 mph - N/A   Clear
5:35 AM 66.2 °F 46.4 °F 49% 30.10 in 10.0 mi SSW 6.9 mph - N/A   Clear
5:55 AM 66.2 °F 46.4 °F 49% 30.09 in 10.0 mi SSW 6.9 mph - N/A   Clear
6:15 AM 64.4 °F 46.4 °F 52% 30.09 in 10.0 mi SSW 8.1 mph - N/A   Clear
6:35 AM 64.4 °F 46.4 °F 52% 30.09 in 10.0 mi SSW 6.9 mph - N/A   Clear
6:55 AM 64.4 °F 46.4 °F 52% 30.09 in 10.0 mi SSW 5.8 mph - N/A   Clear
7:15 AM 64.4 °F 46.4 °F 52% 30.09 in 10.0 mi South 4.6 mph - N/A   Clear
7:35 AM 68.0 °F 44.6 °F 43% 30.09 in 10.0 mi SSW 6.9 mph - N/A   Clear
7:55 AM 68.0 °F 46.4 °F 46% 30.10 in 10.0 mi South 9.2 mph - N/A   Clear
8:15 AM 69.8 °F 46.4 °F 43% 30.10 in 10.0 mi South 6.9 mph - N/A   Clear
8:35 AM 71.6 °F 46.4 °F 41% 30.10 in 10.0 mi SSW 5.8 mph - N/A   Clear
8:55 AM 75.2 °F 46.4 °F 36% 30.10 in 10.0 mi SSW 11.5 mph - N/A   Clear
9:15 AM 78.8 °F 48.2 °F 34% 30.10 in 10.0 mi SSW 15.0 mph - N/A   Clear
9:55 AM 82.4 °F 50.0 °F 32% 30.10 in 10.0 mi SW 11.5 mph - N/A   Clear
10:15 AM 86.0 °F 51.8 °F 31% 30.10 in 10.0 mi SSW 11.5 mph - N/A   Clear
10:35 AM 87.8 °F 51.8 °F 29% 30.10 in 10.0 mi SSW 11.5 mph - N/A   Clear
10:55 AM 89.6 °F 51.8 °F 27% 30.10 in 10.0 mi South 11.5 mph - N/A   Clear
11:15 AM 91.4 °F 51.8 °F 26% 30.10 in 10.0 mi SW 12.7 mph - N/A   Clear
11:35 AM 95.0 °F 51.8 °F 23% 30.09 in 10.0 mi South 11.5 mph - N/A   Clear
11:55 AM 95.0 °F 51.8 °F 23% 30.09 in 10.0 mi South 10.4 mph - N/A   Clear
12:15 PM 96.8 °F 51.8 °F 22% 30.09 in 10.0 mi SSW 10.4 mph - N/A   Clear
12:35 PM 98.6 °F 51.8 °F 21% 30.09 in 10.0 mi South 13.8 mph 17.3 mph N/A   Clear
12:55 PM 98.6 °F 51.8 °F 21% 30.08 in 10.0 mi South 12.7 mph 19.6 mph N/A   Clear
1:15 PM 98.6 °F 51.8 °F 21% 30.07 in 10.0 mi SSW 11.5 mph - N/A   Clear
1:35 PM 98.6 °F 51.8 °F 21% 30.07 in 10.0 mi South 15.0 mph 23.0 mph N/A   Clear
1:55 PM 98.6 °F 51.8 °F 21% 30.06 in 10.0 mi South 12.7 mph 23.0 mph N/A   Clear
2:15 PM 100.4 °F 51.8 °F 20% 30.06 in 10.0 mi South 15.0 mph 21.9 mph N/A   Clear
2:35 PM 100.4 °F 51.8 °F 20% 30.05 in 10.0 mi South 12.7 mph 19.6 mph N/A   Clear
2:55 PM 100.4 °F 51.8 °F 20% 30.04 in 10.0 mi South 11.5 mph 20.7 mph N/A   Clear
3:15 PM 100.4 °F 51.8 °F 20% 30.04 in 10.0 mi SSE 16.1 mph 21.9 mph N/A   Clear
3:35 PM 100.4 °F 51.8 °F 20% 30.03 in 10.0 mi South 11.5 mph 18.4 mph N/A   Clear
3:55 PM 100.4 °F 51.8 °F 20% 30.03 in 10.0 mi SSE 17.3 mph 21.9 mph N/A   Clear
4:15 PM 100.4 °F 51.8 °F 20% 30.02 in 10.0 mi South 17.3 mph 23.0 mph N/A   Clear
4:35 PM 100.4 °F 51.8 °F 20% 30.02 in 10.0 mi South 13.8 mph 21.9 mph N/A   Clear
4:55 PM 100.4 °F 51.8 °F 20% 30.01 in 10.0 mi SSE 20.7 mph 28.8 mph N/A   Clear
5:15 PM 100.4 °F 51.8 °F 20% 30.01 in 10.0 mi South 17.3 mph 24.2 mph N/A   Clear
5:35 PM 98.6 °F 51.8 °F 21% 30.00 in 10.0 mi South 15.0 mph 23.0 mph N/A   Clear
5:55 PM 98.6 °F 50.0 °F 19% 30.00 in 10.0 mi South 17.3 mph 23.0 mph N/A   Clear
6:15 PM 98.6 °F 50.0 °F 19% 30.00 in 10.0 mi South 13.8 mph - N/A   Clear
6:35 PM 98.6 °F 50.0 °F 19% 30.00 in 10.0 mi South 13.8 mph 20.7 mph N/A   Clear
6:55 PM 96.8 °F 50.0 °F 20% 29.99 in 10.0 mi South 11.5 mph - N/A   Clear
7:15 PM 95.0 °F 50.0 °F 22% 29.99 in 10.0 mi South 15.0 mph 18.4 mph N/A   Clear
7:35 PM 95.0 °F 50.0 °F 22% 29.99 in 10.0 mi South 12.7 mph 17.3 mph N/A   Clear
7:55 PM 91.4 °F 50.0 °F 24% 29.99 in 10.0 mi South 10.4 mph - N/A   Clear
8:15 PM 89.6 °F 50.0 °F 26% 30.00 in 10.0 mi South 12.7 mph - N/A   Clear
8:35 PM 87.8 °F 50.0 °F 27% 30.00 in 10.0 mi South 10.4 mph - N/A   Clear
8:55 PM 86.0 °F 50.0 °F 29% 30.01 in 10.0 mi South 10.4 mph 16.1 mph N/A   Clear
9:15 PM 86.0 °F 50.0 °F 29% 30.02 in 10.0 mi South 15.0 mph - N/A   Clear
9:35 PM 84.2 °F 50.0 °F 30% 30.02 in 10.0 mi SSE 11.5 mph 18.4 mph N/A   Clear
9:55 PM 82.4 °F 50.0 °F 32% 30.02 in 10.0 mi South 11.5 mph - N/A   Clear
10:15 PM 82.4 °F 50.0 °F 32% 30.02 in 10.0 mi South 12.7 mph 16.1 mph N/A   Clear
10:35 PM 82.4 °F 50.0 °F 32% 30.03 in 10.0 mi South 13.8 mph - N/A   Clear
10:55 PM 82.4 °F 50.0 °F 32% 30.03 in 10.0 mi South 11.5 mph - N/A   Clear
11:15 PM 80.6 °F 50.0 °F 34% 30.03 in 10.0 mi South 10.4 mph - N/A   Clear
11:35 PM 78.8 °F 50.0 °F 36% 30.03 in 10.0 mi South 9.2 mph - N/A   Clear
11:55 PM 77.0 °F 50.0 °F 39% 30.03 in 10.0 mi SSW 5.8 mph - N/A   Clear